Regional Weather Roundup
Issued by NWS Bismarck, ND

Home | Current Version | Previous Version | Text Only | Print | Product List | Glossary On
Versions: 1 2 3 4 5 6 7 8 9 10 11 12 13 14 15 16 17 18 19 20 21 22 23 24 25 26 27 28 29 30 31 32 33 34 35 36 37 38 39 40 41 42 43 44 45 46 47 48 49 50
604
ASUS43 KBIS 200310
RWRBIS

NWR BROADCAST TEXT
NATIONAL WEATHER SERVICE BISMARCK ND
900 PM CST THU JAN 19 2017

NOTE: "FAIR" INDICATES FEW OR NO CLOUDS BELOW 12,000 FEET WITH NO
SIGNIFICANT WEATHER AND/OR OBSTRUCTIONS TO VISIBILITY.


CITY           SKY/WX    TMP DP  RH WIND       PRES   REMARKS
WILLISTON      FAIR      14  12  92 CALM      29.44F
MINOT          FAIR      27  22  81 S8        29.42F WCI  19
MINOT AFB      FAIR      22  19  87 SW3       29.41F
BISMARCK       FAIR      13  10  88 SE8       29.50R WCI   2
DICKINSON      FAIR      21  16  81 CALM      29.41F
GARRISON         N/A     16  13  88 E3        29.43F
HETTINGER ARPT FAIR      20  16  84 CALM      29.44F
JAMESTOWN      CLOUDY    32  32 100 S14       29.50F FOG
CARRINGTON     CLOUDY    21  19  93 S10       29.52S FOG     WCI  10
HAZEN            N/A    N/A N/A N/A CALM      29.47F
MANDAN         FAIR      18  16  93 S12       29.48R WCI   5
RUGBY            N/A     21  18  86 SE8       29.46S WCI  12
STANLEY        FAIR      25  23  93 W3        29.45S
TIOGA          FAIR      21  21 100 CALM      29.45S
WATFORD CITY   FAIR      18  16  93 SW3       29.44S
$$

CITY           SKY/WX    TMP DP  RH WIND       PRES   REMARKS
GRAND FORKS    CLOUDY    35  32  88 S16       29.56R FOG
GRAND FORKS AF CLOUDY    32  32 100 S18       29.54F
DEVILS LAKE    MIX PCPN  22  21  96 S13       29.50R VSB 1   WCI  10
FARGO          FOG       36  36 100 S14       29.59S VSB 3/4
CAVALIER         N/A     27  27 100 S15       29.52S FOG     WCI  15
GRAFTON        CLOUDY    34  34 100 S17       29.55F FOG
GWINNER        CLOUDY    36  36 100 SE10      29.56S
ROLLA            N/A    N/A N/A N/A MISG        N/A
$$

CITY           SKY/WX    TMP DP  RH WIND       PRES   REMARKS
ABERDEEN       CLOUDY    34  32  92 S10       29.54F FOG
MOBRIDGE       FOG       22  18  85 CALM      29.46F VSB 1/4
BUFFALO          N/A     32  21  64 W7        29.38F
RAPID CITY     FAIR      29  20  69 NW6       29.45F
GLASGOW        FAIR      26  21  81 S6        29.45S WCI  19
SIDNEY         FAIR      19  17  92 SW3       29.44F
WOLF POINT     FAIR      20  17  88 SW5       29.45F WCI  13
GLENDIVE       FAIR      23  18  81 S6        29.45S WCI  16
MILES CITY     FAIR      22  16  78 SW3       29.47F
BAKER          FAIR      27  19  72 CALM      29.45S
$$

CITY           SKY/WX    TMP DP  RH WIND       PRES   REMARKS
BILLINGS       DRIZZLE   36  25  64 SW14      29.52F
GREAT FALLS    FAIR      37  28  70 S10       29.47S
REGINA         MOCLDY    32  28  86 SE6       29.39R
ESTEVAN        CLEAR     23  19  86 SW7       29.41F WCI  15
$$





USA.gov is the U.S. government's official web portal to all federal, state and local government web resources and services.